Morgantown, WV

12:15 PM EST on January 20, 2017 (GMT -0500)
Morgantown Municipal-Hart

Weather History for KMGW - March, 2014

Change the Weather History Date:

Friday, March 14, 2014

  Actual Average Record
Temperature  
Mean Temperature 44 °F 41 °F  
Max Temperature 60 °F 51 °F 80 °F (1973)
Min Temperature 27 °F 32 °F 11 °F (1993)
Degree Days  
Heating Degree Days 21 24  
Month to date heating degree days 431 361  
Since 1 July heating degree days 4557 4250  
Cooling Degree Days 0 0  
Month to date cooling degree days 0 0  
Year to date cooling degree days 0 0  
Moisture  
Dew Point 19 °F    
Average Humidity 38    
Maximum Humidity 50    
Minimum Humidity 26    
Precipitation  
Precipitation 0.00 in 0.12 in 0.94 in (1986)
Month to date precipitation 1.19 1.56  
Year to date precipitation 6.36 6.97  
Sea Level Pressure  
Sea Level Pressure 30.00 in    
Wind  
Wind Speed 10 mph (SSW)    
Max Wind Speed 22 mph    
Max Gust Speed 36 mph    
Visibility 10 miles    
Events      
T = Trace of Precipitation, MM = Missing Value Source: NWS Daily Summary

Daily Weather History Graph

Daily Weather History Graph

Search for Another Location

Airport or City:

Trip Planner

Search our weather history database for the weather conditions in past years. The results will help you decide how hot, cold, wet, or windy it might be!

Date:

Astronomy

Mar. 14, 2014 Rise Set
Actual Time 7:32 AM EDT 7:25 PM EDT
Civil Twilight 7:05 AM EDT 7:52 PM EDT
Nautical Twilight 6:34 AM EDT 8:23 PM EDT
Astronomical Twilight 6:03 AM EDT 8:55 PM EDT
Moon 5:46 PM EDT (3/14) 6:11 AM EDT (3/14)
Length of Visible Light 12h 46m
Length of Day
11h 52m
Waxing Gibbous, 96% of the Moon is Illuminated
Mar 14
Waxing Gibbous
Mar 16
Full
Mar 23
Last Quarter
Mar 30
New
Apr 7
First Quarter

Hourly Weather History & Observations

Time (EDT) Temp. Windchill Dew Point Humidity Pressure Visibility Wind Dir Wind Speed Gust Speed Precip Events Conditions
12:53 AM 27.0 °F 19.5 °F 8.1 °F 45% 30.17 in 10.0 mi SSW 6.9 mph - N/A   Overcast
1:53 AM 28.0 °F 20.0 °F 9.0 °F 45% 30.17 in 10.0 mi SSW 8.1 mph - N/A   Overcast
2:53 AM 28.9 °F 23.9 °F 10.0 °F 45% 30.16 in 10.0 mi Variable 4.6 mph - N/A   Overcast
3:53 AM 28.9 °F 21.9 °F 10.0 °F 45% 30.14 in 10.0 mi South 6.9 mph - N/A   Overcast
4:53 AM 30.0 °F 22.4 °F 10.0 °F 43% 30.13 in 10.0 mi SSW 8.1 mph 16.1 mph N/A   Overcast
5:53 AM 30.9 °F 24.3 °F 10.0 °F 42% 30.14 in 10.0 mi SSW 6.9 mph - N/A   Overcast
6:53 AM 32.0 °F 24.8 °F 10.9 °F 42% 30.13 in 10.0 mi South 8.1 mph - N/A   Mostly Cloudy
7:53 AM 33.1 °F 24.9 °F 10.0 °F 38% 30.13 in 10.0 mi SSW 10.4 mph 18.4 mph N/A   Clear
8:53 AM 36.0 °F 29.6 °F 10.9 °F 36% 30.11 in 10.0 mi South 8.1 mph 18.4 mph N/A   Clear
9:53 AM 41.0 °F 34.3 °F 12.0 °F 31% 30.10 in 10.0 mi SSW 11.5 mph 18.4 mph N/A   Clear
10:53 AM 46.0 °F 40.6 °F 16.0 °F 30% 30.08 in 10.0 mi SSW 11.5 mph - N/A   Clear
11:53 AM 50.0 °F - 21.0 °F 32% 30.05 in 10.0 mi SSW 9.2 mph 20.7 mph N/A   Clear
12:53 PM 55.0 °F - 25.0 °F 31% 30.02 in 10.0 mi SW 13.8 mph 23.0 mph N/A   Clear
1:53 PM 57.9 °F - 26.1 °F 30% 29.97 in 10.0 mi SW 13.8 mph 25.3 mph N/A   Clear
2:53 PM 57.9 °F - 26.1 °F 30% 29.92 in 10.0 mi SSW 10.4 mph 25.3 mph N/A   Clear
3:53 PM 60.1 °F - 26.1 °F 27% 29.88 in 10.0 mi SSW 12.7 mph 20.7 mph N/A   Clear
4:53 PM 59.0 °F - 25.0 °F 27% 29.85 in 10.0 mi SSW 12.7 mph 24.2 mph N/A   Clear
5:53 PM 57.9 °F - 25.0 °F 28% 29.82 in 10.0 mi SSW 10.4 mph 19.6 mph N/A   Clear
6:53 PM 57.0 °F - 24.1 °F 28% 29.83 in 10.0 mi SSW 9.2 mph 17.3 mph N/A   Clear
7:53 PM 55.9 °F - 24.1 °F 29% 29.82 in 10.0 mi SSW 4.6 mph - N/A   Clear
8:53 PM 55.9 °F - 24.1 °F 29% 29.82 in 10.0 mi SSW 8.1 mph 18.4 mph N/A   Clear
9:53 PM 55.9 °F - 23.0 °F 28% 29.83 in 10.0 mi SSW 11.5 mph 24.2 mph N/A   Clear
10:53 PM 55.0 °F - 25.0 °F 31% 29.86 in 10.0 mi WSW 12.7 mph 28.8 mph N/A   Overcast
11:53 PM 52.0 °F - 33.1 °F 49% 29.86 in 10.0 mi WSW 11.5 mph 25.3 mph N/A   Overcast